Home > Weather > Nassau > Past weeks

Flag for Bahamas Past Weather in Nassau, Bahamas — Yesterday and Last 2 Weeks

Now
90 °F

Scattered clouds.


Feels Like: 100 °F
Forecast: 81 / 87 °F
Wind: 9 mph from East

Location: Nassau Airport

Current Time: Jun 24, 2016 at 4:22:10 PM

Latest Report: Jun 24, 2016 at 4:00 PM


Visibility: N/A

Pressure: 30.10 "Hg

Humidity: 63%

Dew Point: 75 °F

Location of NassauLocation

Past Weather in Nassau — Graph

°F

Nassau Temperature Yesterday

Maximum temperature yesterday: 93 °F (at 12:00 PM)
Minimum temperature yesterday: 81 °F (at 12:00 AM)
Average temperature yesterday: 86 °F

High & Low Weather Summary for the Past Weeks

 TemperatureHumidityPressure
High95 °F (Jun 15, 2:00 PM)100% (Jun 9, 8:00 PM)30.17 "Hg (Jun 9, 8:00 PM)
Low75 °F (Jun 14, 7:00 AM)49% (Jun 13, 7:00 PM)29.96 "Hg (Jun 13, 5:00 PM)
Average84 °F76%30.07 "Hg
* Reported Jun 9 3:00 PM — Jun 24 3:00 PM, Nassau, Weather by CustomWeather, © 2016

Note: Actual official high and low records may vary slightly from our data, if they occured in-between our weather recording intervals... More about our weather records

Advertising

Nassau Weather History for the Previous 24 Hours

Scroll right to see more
 ConditionsComfort  
Time TempWeatherWind HumidityBarometerVisibility
3:00 PM
Fri, Jun 24
91 °FScattered clouds.7 mph59%30.12 "HgN/A
2:00 PM90 °FScattered clouds.6 mph63%30.12 "HgN/A
1:00 PM90 °FScattered clouds.9 mph59%30.14 "HgN/A
12:00 PM91 °FScattered clouds.7 mph59%30.14 "HgN/A
11:00 AM88 °FPartly sunny.8 mph70%30.14 "HgN/A
10:00 AM90 °FScattered clouds.8 mph59%30.14 "HgN/A
9:00 AM88 °FScattered clouds.7 mph66%30.13 "HgN/A
8:00 AM86 °FPassing clouds.3 mph70%30.12 "HgN/A
7:00 AM82 °FPassing clouds.6 mph89%30.10 "HgN/A
6:00 AM82 °FPassing clouds.3 mph89%30.09 "HgN/A
5:00 AM82 °FPassing clouds.No wind89%30.09 "HgN/A
2:00 AM82 °FPassing clouds.6 mph84%30.09 "HgN/A
1:00 AM84 °FPassing clouds.3 mph79%30.11 "HgN/A
12:00 AM84 °FPartly cloudy.8 mph79%30.11 "HgN/A
11:00 PM
Thu, Jun 23
84 °FPassing clouds.8 mph79%30.13 "HgN/A
10:00 PM84 °FPartly cloudy.8 mph70%30.12 "HgN/A
9:00 PM84 °FBroken clouds.6 mph66%30.11 "HgN/A
8:00 PM86 °FScattered clouds.7 mph70%30.11 "HgN/A
7:00 PM88 °FScattered clouds.7 mph66%30.10 "HgN/A
6:00 PM88 °FScattered clouds.5 mph59%30.10 "HgN/A
5:00 PM90 °FScattered clouds.9 mph63%30.11 "HgN/A
4:00 PM88 °FScattered clouds.9 mph62%30.11 "HgN/A
Weather by CustomWeather, © 2016

See weather overviewHow to use our weather pages